Tracking 30703 objects as of 13-Jun-2025
HD Live streaming from Space Station
objects crossing your sky now

CZ-3B DEB

Track CZ-3B DEB now!


NORAD ID: 42475
Int'l Code: 2011-077AQ
Perigee: 725.6 km
Apogee: 41,334.8 km
Inclination: 26.2 °
Period: 752.3 minutes
Semi major axis: 27401 km
RCS: Unknown
Launch date: December 19, 2011
Source: People's Republic of China (PRC)
Launch site: Xichang Space Center, China (XSC)

Note: This is SATELLITE DEBRIS
Your satellite tracking list
Your tracking list is empty




NASA's NSSDC Master Catalog

Two Line Element Set (TLE):
1 42475U 11077AQ  25163.11461572 -.00000447  00000-0 -11307-1 0  9992
2 42475  26.2117  43.8487 7410123 322.0729   4.1562  1.91403085 25804
Source of the keplerian elements: AFSPC